Regional Weather Roundup
Issued by NWS

Home | Current Version | Previous Version | Graphics & Text | Print | Product List | Glossary On
Versions: 1 2 3 4 5 6 7 8 9 10 11 12 13 14 15 16 17 18 19 20 21 22 23 24 25 26 27 28 29 30 31 32 33 34 35 36 37 38 39 40 41 42 43 44 45 46 47 48 49 50
000
ASUS43 KLOT 241312
RWRIL

ILLINOIS REGIONAL WEATHER ROUNDUP
NATIONAL WEATHER SERVICE CHICAGO/ROMEOVILLE IL
800 AM CDT SUN MAY 24 2015

NOTE: "FAIR" INDICATES FEW OR NO CLOUDS BELOW 12,000 FEET WITH NO
SIGNIFICANT WEATHER AND/OR OBSTRUCTIONS TO VISIBILITY.

* THESE STATIONS ARE NOT UNDER NWS QUALITY CONTROL. THEY ALSO MAY NOT
  REPORT WEATHER SUCH AS PRECIPITATION OR FOG.

ILZ001-002-007-009-015-016-024-241400-
NORTHWEST ILLINOIS

CITY           SKY/WX    TMP DP  RH WIND       PRES   REMARKS
MOLINE         LGT RAIN  59  56  89 E8        30.10F
STERLING*      CLOUDY    63  54  72 E8        30.14R
SAVANNA*       LGT RAIN  60  55  82 CALM      30.13R
$$

ILZ003-004-008-010-011-017-018-241400-
NORTH CENTRAL ILLINOIS

CITY           SKY/WX    TMP DP  RH WIND       PRES   REMARKS
ROCKFORD       DRIZZLE   62  53  72 SE8       30.15F
FREEPORT*      CLOUDY    60  54  82 SE7       30.15F
ROCHELLE*      CLOUDY    62  51  69 SE10      30.15F
DE KALB*       CLOUDY    59  52  78 SE5       30.17F
PERU*          CLOUDY    59  58  99 E8        30.15F
$$

ILZ005-006-012>014-019>023-241400-
NORTHEAST ILLINOIS

CITY           SKY/WX    TMP DP  RH WIND       PRES   REMARKS
CHICAGO-OHARE  CLOUDY    62  52  69 S6        30.18S
CHICAGO-MIDWAY LGT RAIN  63  55  75 CALM      30.18F
AURORA         CLOUDY    62  54  74 E6        30.17F
LANSING*       CLOUDY    64  48  57 CALM      30.20S
JOLIET*        CLOUDY    61  58  91 SE6       30.18S
WAUKEGAN       CLOUDY    64  51  62 S6        30.18R
DUPAGE AIRPORT CLOUDY    62  54  74 CALM      30.17F
KANKAKEE*      CLOUDY    64  53  67 E6        30.19S
WHEELING       CLOUDY    64  52  64 SW6       30.20S
MORRIS*        CLOUDY    60  56  86 E7        30.14S
ROMEOVILLE*    CLOUDY    61  56  83 SE6       30.17F
NORTHERLY ISL    N/A     60  52  74 SW3         N/A
$$

LMZ740>746-241400-
SOUTHERN LAKE MICHIGAN

STATION/POSITION SKY/WX   TEMP    WIND        PRES    VSBY  WAVE
                          AIR SEA DIR/SP/G                  HT/PER
                          (F)     (DEG/KT/KT) (MB)    (MI)  (FT/S)
SOUTHERN BUOY              45 38  160/  8/  8 1023.0F         0
HARRISON CRIB              56     160/  8/  9   N/A
BURNHAM HARBOR             60     140/  1/  6   N/A
CALUMET HARBOR             65     210/  3/  5   N/A
BURNS HARBOR               65     150/  8/ 12 1023.0S
MICHIGAN CITY              64     120/  9/ 11   N/A
MICHIGAN CITY 6N           60 54  160/  8/  8   N/A           1
ST. JOSEPH                 61 54  190/  8/ 10   N/A           1
$$

ILZ025>027-034>036-040-047-049-050-058-095>099-241400-
WEST-CENTRAL ILLINOIS

CITY           SKY/WX    TMP DP  RH WIND       PRES   REMARKS
QUINCY         CLOUDY    65  56  72 SE12      30.03F
GALESBURG*     DRIZZLE   62  56  82 E8        30.09F
MACOMB*        CLOUDY    63  57  81 E9        30.09F
JACKSONVILLE*  CLOUDY    70  56  61 SE12      30.08F
PITTSFIELD*    CLOUDY    67  55  65 SE12      30.07F
$$

ILZ028>032-037-038-041>044-048-051>054-059>061-241400-
CENTRAL ILLINOIS

CITY           SKY/WX    TMP DP  RH WIND       PRES   REMARKS
PONTIAC        CLOUDY    66  55  66 E7        30.16F
BLOOMINGTON    CLOUDY    68  53  58 S13       30.15F
DECATUR        CLOUDY    68  53  58 S12       30.14F
PEORIA         CLOUDY    69  53  56 E6        30.12F
LACON*         CLOUDY    62  54  75 E3        30.13R
LINCOLN*       CLOUDY    71  53  52 SE9       30.10F
SPRINGFIELD    PTSUNNY   72  55  55 SE12      30.11F
TAYLORVILLE    CLOUDY    64  54  68 SE13G18   30.12F
$$

ILZ033-039-045-046-055>057-062-063-241400-
EAST-CENTRAL ILLINOIS

CITY           SKY/WX    TMP DP  RH WIND       PRES   REMARKS
CHAMPAIGN      CLOUDY    69  50  50 SE12      30.16F
DANVILLE*      CLOUDY    67  51  57 SE7       30.17S
RANTOUL*       CLOUDY    69  51  53 SE9       30.17F
MATTOON        CLOUDY    66  53  63 SE10      30.16F
PARIS*         CLOUDY    69  52  56 SE12      30.20S
$$

ILZ079-100>102-241400-
SOUTHWEST ILLINOIS

CITY           SKY/WX    TMP DP  RH WIND       PRES   REMARKS
ALTON          PTSUNNY   68  61  77 SE12      30.10F
BELLEVILLE     MOSUNNY   68  60  76 SE9       30.09F
CAHOKIA*       PTSUNNY   70  58  65 SE13      30.09F
SPARTA*        PTSUNNY   67  59  74 SE10      30.12F
$$

ILZ064>066-069>071-074>076-080>082-084>086-088>090-092>094-241400-
SOUTH-CENTRAL ILLINOIS

CITY           SKY/WX    TMP DP  RH WIND       PRES   REMARKS
CARBONDALE     PTSUNNY   69  59  70 S8        30.13F
CAIRO*         MOSUNNY   72  60  65 SE10      30.14S
EFFINGHAM*     PTSUNNY   67  52  58 SE10      30.18S
MARION         MOSUNNY   70  61  73 S9        30.15F
MT. VERNON     CLOUDY    70  55  60 SE8       30.16F
CENTRALIA*     MOSUNNY   73  56  55 SE9       30.14S
SALEM*         PTSUNNY   70  56  61 SE8       30.15S
METROPOLIS*    PTSUNNY   69  60  75 SE3       30.16S
$$

ILZ067-068-072-073-078-083-087-091-241400-
SOUTHEAST ILLINOIS

CITY           SKY/WX    TMP DP  RH WIND       PRES   REMARKS
LAWRENCEVILLE  MOSUNNY   69  56  62 S12       30.20S
FLORA*         SUNNY     69  56  64 SE13      30.17F
FAIRFIELD*     SUNNY     70  57  63 S10       30.16F
HARRISBURG*    MOSUNNY   69  60  72 SE8       30.18F
ROBINSON*      MOSUNNY   68  54  60 S10       30.20S
CARMI*         MOSUNNY   72  52  49 SE16      30.18F
$$

ABBREVIATIONS USED IN REMARKS
   TC - TEMPERATURE IN CELSIUS
  WCI - WIND CHILL INDEX
   HX - HEAT INDEX
  VSB - VISIBILITY
$$



USA.gov is the U.S. government's official web portal to all federal, state and local government web resources and services.